Location: Fort Wayne
(41.1310°N, 85.1290°W)
Time: 12:50:49
(UTC-04:00)

Tiros 1 despin weight - Visible Passes

Search period start: 26 March 2017 00:00
Search period end: 05 April 2017 00:00
Orbit: 596 x 644 km, 48.2° (Epoch: 24 March)

Date Brightness Start Highest point End Pass type
(mag) Time Alt. Az. Time Alt. Az. Time Alt. Az.
26 Mar ? 04:06:15 13° ENE 04:06:15 13° ENE 04:06:49 10° ENE visible
26 Mar ? 05:43:20 45° WNW 05:44:10 52° NNW 05:48:30 10° ENE visible
27 Mar ? 04:22:26 22° ENE 04:22:26 22° ENE 04:24:01 10° ENE visible
27 Mar ? 05:59:30 25° WNW 06:01:26 39° NNW 06:05:36 10° ENE visible
28 Mar ? 04:38:35 32° NE 04:38:35 32° NE 04:41:05 10° ENE visible
28 Mar ? 06:15:39 15° WNW 06:18:46 33° N 06:22:48 10° ENE visible
29 Mar ? 04:54:42 40° NNE 04:54:42 40° NNE 04:58:08 10° ENE visible
29 Mar ? 06:32:07 10° WNW 06:36:08 32° N 06:40:09 10° ENE visible
30 Mar ? 05:10:50 35° NNW 05:11:10 35° N 05:15:16 10° ENE visible
30 Mar ? 06:49:22 10° WNW 06:53:29 37° N 06:57:36 10° E visible
31 Mar ? 03:49:53 15° NE 03:49:53 15° NE 03:50:43 10° ENE visible
31 Mar ? 05:26:57 25° NW 05:28:31 32° N 05:32:32 10° ENE visible
01 Apr ? 04:06:00 22° NE 04:06:00 22° NE 04:07:47 10° ENE visible
01 Apr ? 05:43:05 17° NW 05:45:53 34° N 05:49:56 10° ENE visible
02 Apr ? 04:22:10 28° NNE 04:22:10 28° NNE 04:24:58 10° ENE visible
02 Apr ? 05:59:15 11° NW 06:03:13 41° NNE 06:07:24 10° E visible
03 Apr ? 04:38:22 32° N 04:38:22 32° N 04:42:18 10° ENE visible
03 Apr ? 06:16:04 10° WNW 06:20:27 57° NNE 06:24:49 10° ESE visible
04 Apr ? 04:54:39 32° NNW 04:55:38 36° N 04:59:45 10° ENE visible
04 Apr ? 06:33:07 10° WNW 06:37:35 90° WSW 06:42:00 10° ESE visible
